DMSP 5D-2 F13 DEB, 40673

Orbit data source: Space-Track

DMSP 5D-2 F13 DEB, 40673 is space debris in SSO originally from a launch on Fri, 24 Mar 1995 UTC launched from the Air Force Western Test Range (AFWTR). Debris objects in space refer to the collection of defunct objects orbiting the Earth. Examples of debris include non-operational satellites, rocket bodies, and fragments generated from explosions, collisions, or faulty payload assembly.

Loading next visibility...
Identifier
40673, 1995-015FM
Orbit
SSO
Country
Flag of USUS
Related business
Manufacturer
Unknown
Mission
Spacecraft
Bus & Motor
Unknown
Mass
Unknown
Launch date (UTC)
1995-03-24 (31 years ago)
Launch vehicle
Unknown
Launch site
Air Force Western Test Range (AFWTR)
Object type
Payload
Rocket body
Debris
Shape & HBR
Unknown shape, 0.1 m
Radar Cross Section
Small (<0.1 m²)

Expand to show TLE details & history
Last TLE update: 3 days ago

TLE from 3 days ago
0 DMSP 5D-2 F13 DEB
1 40673U 95015FM  25300.99477626  .00000750  00000-0  35581-3 0  9997
2 40673  98.7082 315.0584 0022973 341.9017  18.1341 14.22406359547729
Epoch: 2025-10-27T23:52Z
TLE epoch observation values (Epoch: 2025-10-27T23:52:28.668Z)
Latitude
-0.00002°
Longitude
-79.64968°
Altitude
804.436 km
Speed
7.459 km/s
True Right ascension
21h 00m 14s
True Declination
0° 00' 00"
Sunlit
Object was in daylight at epoch
Visualization orbit readout
Latitude
Unknown
Longitude
Unknown
Altitude
Unknown
Speed
Unknown
Apparent Right ascension
Unknown
Apparent Declination
Unknown
Sunlit
N/A
Visualization observer readout
Local Sidereal Time
16:48:51
Azimuth
Unknown
Elevation
Unknown
Doppler factor
Unknown
Orbital elements
Apogee altitude
830.905 km
Perigee altitude
797.858 km
Semi-major axis
7,192.518 km
Eccentricity
0.0023
Inclination
98.7082°
RAAN
315.0584°
Arg. of periapsis
341.9017°
True anomaly
18.21626°
Mean anomaly
18.1341°
Eccentric anomaly
18.17516°
Mean motion
3.55813 °/min
Orbital period
101.18 mins
BSTAR
0.00035581
Loading maneuver chart data...
Computing Atmospheric mass density...

Documentation

Showing up to 5 results
|